Terminal Aerodrome Forecast
Issued by NWS Kansas City/Pleasant Hill, MO

Home | Current Version | Previous Version | Text Only | Print | Product List | Glossary On
Versions: 1 2 3 4 5 6 7 8 9 10 11 12 13 14 15 16 17 18 19 20 21 22 23 24 25 26 27
000
FTUS43 KEAX 250000 CCA
TAFMCI
TAF COR
KMCI 250010Z 2500/2524 34004KT 5SM -RA VCTS OVC070CB
      TEMPO 2500/2501 3SM -TSRA BKN004CB
     FM250200 28006KT P6SM BKN015
     FM250600 20008KT P6SM BKN120
     FM252100 01015KT P6SM -RA BKN030=

USA.gov is the U.S. government's official web portal to all federal, state and local government web resources and services.